Tracking 33188 objects as of 10-Feb-2026
HD Live streaming from Space Station
objects crossing your sky now

METEOR 2-17 DEB

Track METEOR 2-17 DEB now!
10-day predictions


NORAD ID: 28991
Int'l Code: 1988-005F
Perigee: 852.0 km
Apogee: 885.8 km
Inclination: 82.5 °
Period: 102.2 minutes
Semi major axis: 7239 km
RCS: 0.0099 m2 (small)
Launch date: January 30, 1988
Source: Commonwealth of Independent States (former USSR) (CIS)
Launch site: PLESETSK MISSILE AND SPACE COMPLEX (PKMTR)

Note: This is SATELLITE DEBRIS
Your satellite tracking list
Your tracking list is empty




NASA's NSSDC Master Catalog

Two Line Element Set (TLE):
1 28991U 88005F   26036.79908262  .00006232  00000-0  35618-2 0  9998
2 28991  82.5237 331.0515 0023315 281.9387 107.8758 14.09299031 47441
Source of the keplerian elements: AFSPC